Read MPEC 2000-Q28
Read MPEC 2000-Q30
M.P.E.C. 2000-Q29 Issued 2000 Aug. 27, 16:53 UT
The Minor Planet Electronic Circulars contain information on unusual
minor planets and routine data on comets. They are published
on behalf of Commission 20 of the International Astronomical Union by the
Minor Planet Center, Smithsonian Astrophysical Observatory,
Cambridge, MA 02138, U.S.A.
Prepared using the Tamkin Foundation Computer Network
BMARSDEN@CFA.HARVARD.EDU or GWILLIAMS@CFA.HARVARD.EDU
URL http://cfa-www.harvard.edu/iau/mpc.html ISSN 1523-6714
2000 QT7
Observations:
K00Q07T* C2000 08 24.26833 22 07 48.49 -07 58 19.9 16.3 704
K00Q07T C2000 08 24.28102 22 07 48.60 -07 57 03.3 16.5 704
K00Q07T C2000 08 24.29375 22 07 48.74 -07 55 46.4 16.9 704
K00Q07T C2000 08 24.30650 22 07 48.88 -07 54 29.5 16.3 704
K00Q07T C2000 08 24.31924 22 07 49.03 -07 53 12.3 16.6 704
K00Q07T C2000 08 24.95072 22 08 08.43 -06 49 34.6 046
K00Q07T C2000 08 24.95147 22 08 08.51 -06 49 29.9 046
K00Q07T C2000 08 24.95198 22 08 08.50 -06 49 27.0 046
K00Q07T C2000 08 24.95286 22 08 08.55 -06 49 21.6 16.6 R 046
K00Q07T C2000 08 24.95752 22 08 08.47 -06 48 52.9 118
K00Q07T C2000 08 24.96214 22 08 08.52 -06 48 24.8 118
K00Q07T C2000 08 24.96361 22 08 08.54 -06 48 16.1 16.5 R 118
K00Q07T C2000 08 24.98694 22 08 08.99 -06 45 55.1 557
K00Q07T C2000 08 24.98800 22 08 09.00 -06 45 48.1 557
K00Q07T C2000 08 24.98905 22 08 09.01 -06 45 43.0 557
K00Q07T C2000 08 24.99010 22 08 09.04 -06 45 35.4 557
K00Q07T C2000 08 25.04097 22 08 12.80 -06 39 25.2 18.0 V 860
K00Q07T C2000 08 25.04255 22 08 12.84 -06 39 14.4 860
K00Q07T C2000 08 25.04729 22 08 13.03 -06 38 44.4 860
K00Q07T C2000 08 25.14473 22 08 13.86 -06 28 52.4 17.5 V 860
K00Q07T C2000 08 25.14631 22 08 13.86 -06 28 43.0 17.6 V 860
K00Q07T C2000 08 25.14947 22 08 13.80 -06 28 23.2 860
K00Q07T C2000 08 25.15103 22 08 13.84 -06 28 13.0 860
K00Q07T C2000 08 25.25924 22 08 18.31 -06 18 05.6 16.7 704
K00Q07T C2000 08 25.26391 22 08 18.33 -06 17 37.2 16.1 704
K00Q07T C2000 08 25.26976 22 08 19.05 -06 17 01.4 670
K00Q07T C2000 08 25.27211 22 08 18.44 -06 16 47.1 16.7 704
K00Q07T C2000 08 25.27679 22 08 18.47 -06 16 18.3 16.4 704
K00Q07T C2000 08 25.28502 22 08 18.57 -06 15 28.9 18.0 704
K00Q07T C2000 08 25.28971 22 08 18.61 -06 14 59.7 17.6 704
K00Q07T C2000 08 25.29793 22 08 18.70 -06 14 10.2 17.8 704
K00Q07T C2000 08 25.30832 22 08 19.50 -06 13 06.5 670
K00Q07T C2000 08 25.31559 22 08 18.89 -06 12 20.9 16.8 704
K00Q07T 1C2000 08 25.34442 22 08 20.20 -06 09 35.5 658
K00Q07T 1C2000 08 25.34606 22 08 20.20 -06 09 25.2 658
K00Q07T 1C2000 08 25.34822 22 08 20.21 -06 09 12.3 658
K00Q07T C2000 08 25.37310 22 08 20.19 -06 06 32.1 670
K00Q07T C2000 08 25.83342 22 08 36.83 -05 19 42.2 16.5 106
K00Q07T C2000 08 25.84468 22 08 37.18 -05 18 33.1 16.2 R 587
K00Q07T C2000 08 25.84757 22 08 37.27 -05 18 15.5 16.1 R 587
K00Q07T C2000 08 25.85023 22 08 37.10 -05 17 59.1 16.4 106
K00Q07T C2000 08 25.86256 22 08 37.47 -05 16 45.5 16.8 V 151
K00Q07T C2000 08 25.86487 22 08 37.51 -05 16 31.5 17.6 V 151
K00Q07T C2000 08 25.86561 22 08 37.48 -05 16 27.2 16.5 V 611
K00Q07T C2000 08 25.86594 22 08 37.51 -05 16 24.4 16.7 V 151
K00Q07T C2000 08 25.86744 22 08 37.44 -05 16 14.5 15.6 106
K00Q07T C2000 08 25.86767 22 08 37.53 -05 16 14.7 611
K00Q07T C2000 08 25.86804 22 08 37.57 -05 16 11.7 16.7 V 151
K00Q07T C2000 08 25.86924 22 08 37.58 -05 16 04.5 16.7 V 151
K00Q07T C2000 08 25.86928 22 08 37.55 -05 16 05.4 611
K00Q07T C2000 08 25.86985 22 08 37.61 -05 16 00.1 16.6 V 151
K00Q07T C2000 08 25.87245 22 08 37.62 -05 15 46.6 611
K00Q07T C2000 08 25.87391 22 08 37.66 -05 15 36.7 611
K00Q07T C2000 08 25.88675 22 08 37.96 -05 14 14.7 108
K00Q07T C2000 08 25.89016 22 08 38.00 -05 13 56.2 16.8 V 108
K00Q07T C2000 08 25.89443 22 08 37.67 -05 13 30.8 16.4 R 118
K00Q07T C2000 08 25.89689 22 08 37.71 -05 13 15.4 118
K00Q07T C2000 08 25.90027 22 08 37.77 -05 12 54.9 118
K00Q07T C2000 08 25.90162 22 08 38.05 -05 12 42.1 16.2 V 157
K00Q07T C2000 08 25.90417 22 08 38.10 -05 12 26.4 16.5 V 157
K00Q07T C2000 08 25.90729 22 08 38.15 -05 12 07.4 16.2 V 157
K00Q07T C2000 08 25.91296 22 08 38.21 -05 11 32.2 16.6 V 157
K00Q07T C2000 08 25.95552 22 08 39.06 -05 07 16.7 16.7 R 163
K00Q07T C2000 08 25.95558 22 08 38.69 -05 07 16.1 16.2 R 046
K00Q07T C2000 08 25.95580 22 08 39.05 -05 07 14.9 163
K00Q07T C2000 08 25.95608 22 08 39.07 -05 07 13.5 163
K00Q07T C2000 08 25.95635 22 08 39.06 -05 07 11.8 163
K00Q07T C2000 08 25.95644 22 08 38.70 -05 07 11.0 046
K00Q07T 1C2000 08 25.95834 22 08 39.26 -05 06 59.2 012
K00Q07T C2000 08 25.95898 22 08 38.75 -05 06 55.1 16.0 R 046
K00Q07T C2000 08 25.95971 22 08 38.74 -05 06 50.0 046
K00Q07T 1C2000 08 25.96182 22 08 39.15 -05 06 39.6 012
K00Q07T 1C2000 08 25.97329 22 08 39.43 -05 05 28.0 012
K00Q07T 1C2000 08 25.97676 22 08 39.42 -05 05 10.3 012
K00Q07T C2000 08 26.07008 22 08 43.36 -04 54 29.3 18.1 V 860
K00Q07T C2000 08 26.07166 22 08 43.35 -04 54 20.8 18.0 V 860
K00Q07T C2000 08 26.07323 22 08 43.42 -04 54 10.5 17.5 V 860
K00Q07T C2000 08 26.07480 22 08 43.42 -04 54 00.8 18.1 V 860
K00Q07T C2000 08 26.07639 22 08 43.38 -04 53 51.3 18.0 V 860
K00Q07T tC2000 08 26.13015 22 08 45.13 -04 48 13.4 808
K00Q07T tC2000 08 26.15249 22 08 45.41 -04 45 58.6 808
K00Q07T tC2000 08 26.17344 22 08 45.66 -04 43 48.5 808
K00Q07T tC2000 08 26.21128 22 08 46.02 -04 39 55.1 808
K00Q07T tC2000 08 26.23252 22 08 46.19 -04 37 42.7 808
K00Q07T SC2000 08 26.25708 22 08 49.25 -04 36 14.3 670
K00Q07T C2000 08 26.26622 22 08 48.62 -04 35 18.1 17.0 704
K00Q07T C2000 08 26.27969 22 08 48.78 -04 33 55.8 17.0 704
K00Q07T SC2000 08 26.28067 22 08 49.55 -04 33 49.5 670
K00Q07T C2000 08 26.29316 22 08 48.90 -04 32 32.9 17.5 704
K00Q07T SC2000 08 26.30374 22 08 49.68 -04 31 27.8 670
K00Q07T C2000 08 26.30658 22 08 49.06 -04 31 10.0 17.4 704
K00Q07T 1C2000 08 26.30968 22 08 49.94 -04 31 01.1 658
K00Q07T 1C2000 08 26.31397 22 08 49.97 -04 30 34.6 658
K00Q07T 1C2000 08 26.31623 22 08 50.01 -04 30 20.4 658
K00Q07T C2000 08 26.32004 22 08 49.23 -04 29 47.5 17.8 704
K00Q07T C2000 08 26.85931 22 09 07.67 -03 34 37.7 557
K00Q07T C2000 08 26.86042 22 09 07.70 -03 34 30.8 557
K00Q07T C2000 08 26.86083 22 09 07.85 -03 34 25.3 16.1 106
K00Q07T C2000 08 26.86153 22 09 07.73 -03 34 24.2 16.8 V 557
K00Q07T C2000 08 26.87598 22 09 08.09 -03 32 52.7 595
K00Q07T C2000 08 26.88147 22 09 08.14 -03 32 19.0 17.6 V 595
K00Q07T C2000 08 26.88221 22 09 08.20 -03 32 14.1 16.2 106
K00Q07T C2000 08 26.88705 22 09 08.25 -03 31 45.2 595
K00Q07T C2000 08 26.93851 22 09 08.91 -03 26 28.3 16.0 R 118
K00Q07T C2000 08 26.93946 22 09 09.71 -03 26 17.3 952
K00Q07T C2000 08 26.93993 22 09 08.93 -03 26 19.7 118
K00Q07T C2000 08 26.94385 22 09 08.96 -03 25 55.6 118
K00Q07T C2000 08 26.94662 22 09 09.81 -03 25 32.4 952
K00Q07T C2000 08 26.95090 22 09 09.90 -03 25 05.8 952
K00Q07T C2000 08 26.97651 22 09 09.69 -03 22 32.2 104
K00Q07T C2000 08 26.97824 22 09 09.72 -03 22 21.4 104
K00Q07T C2000 08 26.97975 22 09 09.74 -03 22 12.1 104
K00Q07T C2000 08 26.98362 22 09 09.80 -03 21 48.2 16.7 V 104
K00Q07T C2000 08 26.98416 22 09 09.77 -03 21 48.6 16.3 R 113
K00Q07T C2000 08 26.98624 22 09 09.82 -03 21 35.5 16.2 R 113
K00Q07T C2000 08 26.99233 22 09 09.95 -03 20 58.2 16.3 R 113
K00Q07T C2000 08 26.99575 22 09 12.92 -03 19 36.3 16.9 V 859
K00Q07T C2000 08 26.99983 22 09 12.97 -03 19 10.5 17.0 V 859
K00Q07T C2000 08 27.00583 22 09 13.04 -03 18 36.7 17.1 V 859
K00Q07T C2000 08 27.13437 22 09 16.84 -03 06 13.0 18.0 V 739
K00Q07T C2000 08 27.13741 22 09 16.90 -03 05 55.0 17.9 V 739
K00Q07T C2000 08 27.14035 22 09 16.84 -03 05 38.6 17.9 V 739
K00Q07T C2000 08 27.14723 22 09 17.07 -03 04 54.2 17.9 V 734
K00Q07T C2000 08 27.15699 22 09 17.23 -03 03 54.5 17.9 V 734
K00Q07T C2000 08 27.16037 22 09 17.28 -03 03 33.8 17.9 V 734
K00Q07T C2000 08 27.27927 22 09 20.19 -02 51 16.0 670
K00Q07T C2000 08 27.32730 22 09 20.72 -02 46 19.2 670
K00Q07T C2000 08 27.39165 22 09 21.53 -02 39 41.7 670
K00Q07T 1C2000 08 27.40977 22 09 22.21 -02 38 00.1 658
K00Q07T 1C2000 08 27.41515 22 09 22.25 -02 37 27.4 658
K00Q07T 1C2000 08 27.41726 22 09 22.34 -02 37 14.0 658
Observer details:
012 Uccle. Observers H. Debehogne, E. W. Elst. 0.85-m f/2.5 Schmidt + CCD.
046 Klet. Observers J. Ticha, M. Tichy, Z. Moravec, P. Jelinek. 0.57-m f/5.2
reflector + CCD.
104 San Marcello Pistoiese. Observers L. Tesi, A. Boattini, M. Tombelli.
Measurers G. Forti, L. Tesi, A. Boattini, M. Tombelli. 0.40-m f/5
reflector + CCD.
106 Crni Vrh. Observer H. Mikuz. 0.36-m f/6.7 Schmidt-Cassegrain + CCD.
108 Montelupo. Observers M. Tombelli, A. Boattini, L. Tesi, D. Guidetti,
G. Forti, E. Masotti. Measurers M. Tombelli, A. Boattini, L. Tesi,
S. Bartolini, G. Forti. 0.30-m f/5.7 Schmidt-Cassegrain + CCD.
113 Volkssternwarte Drebach, Schoenbrunn. Observers G. Lehmann, J. Kandler,
T. Lehmann. 0.50-m f/4.0 reflector + CCD.
118 Modra. Observers L. Kornos, P. Koleny. 0.6-m f/5.5 reflector + CCD.
151 Eschenberg Observatory, Winterthur. Observer M. Griesser. 0.40-m f/5.8
Hypergraph.
157 Frasso Sabino. Observers R. Haver, F. Anzellini, M. Calabresi, M. Panella.
0.20-m f/6.3 Schmidt-Cassegrain + CCD.
163 Roeser Observatory, Luxembourg. Observer M. Dawson. 0.457-m f/4.5
reflector + CCD.
557 Ondrejov. Observers P. Pravec, P. Kusnirak. 0.65-m f/3.6 reflector + CCD.
587 Sormano. Observers F. Manca, M. Banfi. 0.5-m reflector + CCD.
595 Farra d'Isonzo. Observers G. Lombardi, E. Pettarin. 0.40-m f/4.5
reflector + CCD.
611 Starkenburg. Observer M. Busch. 0.45-m f/4.4 reflector + CCD.
658 National Research Council of Canada. Observer D. D. Balam. 1.82-m
Plaskett reflector + CCD.
670 Camarillo. Observer J. E. Rogers. 0.30-m f/6.7 Helin Telescope + CCD.
704 Lincoln Laboratory ETS, New Mexico. Observers M. Blythe, F. Shelly,
M. Bezpalko, M. Elowitz, R. Huber, L. Manguso. Measurers J. Stuart,
R. Sayer, J. B. Evans, H. Viggh. 1.0-m f/2.15 reflector + CCD.
734 Farpoint Observatory. Observer G. Hug. 0.30-m Schmidt-Cassegrain + CCD.
739 Sunflower Observatory, Olathe. Observer L. Robinson. 0.25-m
Schmidt-Cassegrain + CCD.
808 El Leoncito. Observers C. E. Lopez, H. S. Lepez. 0.5-m f/7.5 double
astrograph + CCD.
859 Wykrota Observatory-CEAMIG. Observers C. Jacques, L. Duczmal, J. Duczmal,
C. Magno. 0.3-m f/3.3 Schmidt-Cassegrain + CCD.
860 Valinhos. Observer P. R. Holvorcem. 0.36-m f/3.6 Schmidt-Cassegrain
+ CCD.
952 Marxuquera. Observer J. J. Gomez. 0.25-m f/3.3 Schmidt-Cassegrain + CCD.
Orbital elements:
2000 QT7
Epoch 2000 Aug. 24.0 TT = JDT 2451780.5 Williams
M 356.14379 (2000.0) P Q
n 0.27721567 Peri. 15.24386 +0.96069639 +0.25514823
a 2.3294722 Node 329.29517 -0.27179963 +0.78441305
e 0.5025819 Incl. 12.36818 -0.05645717 +0.56532782
P 3.56 H 20.0 G 0.15
From 131 observations 2000 Aug. 24-27.
Ephemeris:
2000 QT7 a,e,i = 2.33, 0.50, 12 q = 1.1587
Date TT R. A. (2000) Decl. Delta r Elong. Phase V
2000 08 24 22 07.67 -08 24.7 0.159 1.169 177.1 2.5 16.6
2000 08 29 22 10.23 +00 06.4 0.156 1.163 169.2 9.3 16.9
2000 09 03 22 13.13 +08 30.5 0.158 1.160 161.6 15.9 17.2
2000 09 08 22 16.58 +16 11.5 0.165 1.159 154.8 21.7 17.5
2000 09 13 22 20.71 +22 46.8 0.176 1.161 149.2 26.4 17.7
2000 09 18 22 25.55 +28 08.6 0.191 1.165 144.7 29.9 18.0
2000 09 23 22 31.13 +32 20.0 0.208 1.173 141.4 32.2 18.3
2000 09 28 22 37.48 +35 29.1 0.227 1.183 139.1 33.7 18.5
2000 10 03 22 44.63 +37 45.9 0.248 1.195 137.6 34.4 18.8
2000 10 13 23 01.14 +40 20.4 0.295 1.227 136.1 34.3 19.2
2000 10 23 23 19.93 +41 03.6 0.349 1.268 135.6 33.3 19.6
2000 11 02 23 40.36 +40 36.9 0.410 1.315 135.1 32.2 20.0
2000 11 12 00 01.86 +39 32.4 0.480 1.367 134.0 31.4 20.4
2000 11 22 00 23.82 +38 11.7 0.560 1.424 132.0 31.0 20.8
2000 12 02 00 45.96 +36 49.3 0.651 1.484 129.0 31.1 21.3
2000 12 12 01 08.11 +35 34.7 0.755 1.547 125.1 31.4 21.7
2000 12 22 01 30.09 +34 32.0 0.870 1.611 120.6 31.7 22.1
Gareth V. Williams (C) Copyright 2000 MPC M.P.E.C. 2000-Q29
Read MPEC 2000-Q28
Read MPEC 2000-Q30
Our Web policy. Index to the CBAT/MPC/ICQ pages.